Simultaneous Nadir Overpasses (SNOs) Predictions

Prediction of SNOs between NOAA-15 and METOP-C Satellite Orbit:

Table of predicted SNOs for the next 14.0 days since TLE Epoch: 11/4/2022
Index Date (NOAA-15) Time (NOAA-15) Lat,Lon (NOAA-15) SZA (NOAA-15 ) Date (METOP-C) Time (METOP-C) Lat,Lon (METOP-C) SZA (METOP-C ) Distance(km) Time Diff (sec)
1 11/07/2022 18:28:14 81.07, -58.53 99.74 11/07/2022 18:27:01 81.06, -58.35 99.72 3.11 73
2 11/07/2022 19:18:42 -81.05, 109.14 80.23 11/07/2022 19:17:43 -81.06, 109.03 80.26 2.09 59
3 11/07/2022 20:09:15 81.06, -83.57 99.78 11/07/2022 20:08:22 81.07, -83.46 99.77 2.37 53
4 11/07/2022 20:59:44 -81.06, 83.72 80.23 11/07/2022 20:59:05 -81.06, 83.55 80.26 2.96 39
5 11/07/2022 21:50:17 81.06,-108.99 99.78 11/07/2022 21:49:44 81.06,-108.94 99.78 0.79 33
6 11/07/2022 22:40:46 -81.07, 58.30 80.22 11/07/2022 22:40:26 -81.07, 58.44 80.21 2.43 20
7 11/07/2022 23:31:19 81.07,-134.41 99.79 11/07/2022 23:31:06 81.06,-134.43 99.78 1.48 13
8 11/08/2022 00:21:48 -81.08, 32.88 80.21 11/08/2022 00:21:48 -81.06, 32.95 80.21 2.14 0
9 11/08/2022 01:12:20 81.06,-159.45 99.83 11/08/2022 01:12:27 81.07,-159.54 99.83 1.56 7
10 11/08/2022 02:02:49 -81.07, 7.83 80.17 11/08/2022 02:03:09 -81.07, 7.84 80.16 0.41 20
11 11/08/2022 02:53:22 81.07, 175.13 99.84 11/08/2022 02:53:49 81.06, 174.98 99.83 2.74 27
12 11/08/2022 03:43:51 -81.07, -17.59 80.16 11/08/2022 03:44:31 -81.06, -17.64 80.16 1.35 40
13 11/08/2022 04:34:24 81.08, 149.71 99.85 11/08/2022 04:35:10 81.07, 149.87 99.88 2.76 46
14 11/08/2022 05:24:52 -81.06, -42.65 80.13 11/08/2022 05:25:52 -81.07, -42.75 80.11 2.01 60



Historial Predications of SNOs between NOAA-15 and METOP-C
